[[{"header":{"parameterUnit":"m.s-1","parameterCategory":1,"la1":30.2991,"la2":30.254,"lo1":-89.0895,"lo2":-89.0444,"dy":0.0017,"dx":0.0017,"nx":28,"ny":28,"refTime":"2026-02-07T09:00:00:Z","depth":0,"parameterNumber":2,"parameterNumberName":"U-component_of_WINDS"},"data":[0,0,0,0,0,0,0,0,0,0,0,0,0,0,0,0,0,0,0,0,0,0,0,0,0,0,0,0,0,0,0,0,0,0,0,0,0,0,0,0,0,0,0,0,0,0,0,0,0,0,0,0,0,0,0,0,0,0,-0.3793,-0.3793,0,-0.3799,-0.3799,-0.3799,-0.3817,-0.3817,-0.3818,-0.3818,-0.3824,-0.3824,-0.3824,0,0,0,0,0,0,0,0,0,0,0,0,0,-0.3796,-0.3796,-0.3793,-0.3793,-0.3793,-0.3799,-0.3799,-0.3799,-0.3817,-0.3817,-0.3818,-0.3818,-0.3824,-0.3824,-0.3824,0,0,0,0,0,0,0,0,0,0,0,0,0,-0.3798,-0.3796,-0.3793,-0.3803,-0.3804,-0.3799,-0.3799,-0.3799,-0.3817,-0.3817,-0.3818,-0.3818,-0.3824,-0.3824,-0.3824,-0.381,0,0,-0.3823,-0.3823,0,0,0,0,0,0,0,0,-0.3798,-0.3798,-0.3801,-0.3802,-0.3803,-0.3808,-0.3803,-0.3803,-0.3817,-0.3812,-0.3818,-0.3819,-0.3818,-0.3819,-0.3818,-0.3811,-0.3811,-0.3823,-0.3823,-0.3823,-0.3822,0,0,0,0,0,0,0,-0.3797,-0.3797,-0.3796,-0.3801,-0.3802,-0.3806,-0.3807,-0.3803,-0.3812,-0.3812,-0.3814,-0.3814,-0.3819,-0.3819,-0.3819,-0.3811,-0.3823,-0.3823,-0.3822,-0.3822,-0.3791,-0.3791,0,0,0,0,0,0,-0.3796,-0.3797,-0.3795,-0.3796,-0.3802,-0.3806,-0.3807,-0.3806,-0.3812,-0.3813,-0.3813,-0.3815,-0.3819,-0.3819,-0.3819,-0.3803,-0.3823,-0.3822,-0.3822,-0.3792,-0.3791,-0.379,0,0,0,0,0,0,-0.3796,-0.3796,-0.3795,-0.3797,-0.3797,-0.3805,-0.3804,-0.3806,-0.3805,-0.3813,-0.3814,-0.3812,-0.3819,-0.3819,-0.3812,-0.3803,-0.3822,-0.3822,-0.3793,-0.3792,-0.3791,-0.3771,0,0,0,0,0,0,-0.3796,-0.3796,-0.3791,-0.3797,-0.3797,-0.3788,-0.3803,-0.3805,-0.3805,-0.3807,-0.3811,-0.3813,-0.382,-0.3812,-0.3812,-0.3803,-0.3822,-0.3793,-0.3792,-0.3791,-0.3773,-0.377,-0.3767,0,0,0,0,0,-0.3796,-0.3785,-0.3791,-0.379,-0.3791,-0.3788,-0.3788,-0.3796,-0.3804,-0.3799,-0.3804,-0.3813,-0.3804,-0.3812,-0.3811,-0.3802,-0.3794,-0.3793,-0.3791,-0.3774,-0.377,-0.3767,0,0,0,0,0,0,-0.3779,-0.3786,-0.3792,-0.3783,-0.3785,-0.3791,-0.3785,-0.3792,-0.3792,-0.3793,-0.3804,-0.3805,-0.3796,-0.3798,-0.3806,-0.3789,-0.3801,-0.3799,-0.3788,-0.3784,-0.3782,-0.3781,-0.3821,0,0,0,0,0,-0.3774,-0.3771,-0.3777,-0.3769,-0.3769,-0.3777,-0.3776,-0.3782,-0.3784,-0.3785,-0.3789,-0.379,-0.3788,-0.3786,-0.3785,-0.3773,-0.3774,-0.3767,-0.3764,-0.3761,-0.376,-0.3753,-0.375,-0.3786,-0.3786,-0.3786,0,0,-0.3764,-0.3768,-0.3765,-0.3765,-0.3767,-0.3763,-0.3777,-0.3773,-0.377,-0.3784,-0.3777,-0.378,-0.3782,-0.3773,-0.3768,-0.3774,-0.375,-0.376,-0.3758,-0.3757,-0.3751,-0.3748,-0.3745,-0.3785,-0.3785,-0.3785,0,0,-0.3744,-0.3746,-0.3739,-0.374,-0.3743,-0.3748,-0.3746,-0.3751,-0.3753,-0.3746,-0.3756,-0.3753,-0.3749,-0.375,-0.375,-0.3728,-0.3736,-0.3727,-0.3713,-0.3706,-0.3703,-0.3701,-0.3692,-0.3689,-0.3726,-0.3726,-0.3726,0,-0.3731,-0.3725,-0.3734,-0.3729,-0.3728,-0.374,-0.3732,-0.3733,-0.3735,-0.3734,-0.3741,-0.3735,-0.3738,-0.3728,-0.3722,-0.3722,-0.372,-0.3727,-0.3703,-0.37,-0.3698,-0.369,-0.3687,-0.3724,-0.3725,-0.3725,-0.3725,0,-0.3709,-0.3705,-0.3699,-0.37,-0.3699,-0.3692,-0.3699,-0.3697,-0.3703,-0.3707,-0.3699,-0.3702,-0.3701,-0.3699,-0.3705,-0.3689,-0.3693,-0.3701,-0.3713,-0.3693,-0.3686,-0.3683,-0.3723,-0.3723,-0.3724,-0.3724,0,0,-0.3679,-0.3684,-0.3681,-0.3682,-0.3685,-0.3682,-0.3675,-0.3674,-0.3671,-0.3672,-0.3666,-0.3662,-0.3669,-0.3668,-0.3674,-0.3668,-0.365,-0.3677,-0.3677,-0.3671,-0.3632,-0.3626,-0.3622,-0.3655,-0.3655,-0.3654,-0.3632,0,-0.3659,-0.3649,-0.3656,-0.3644,-0.364,-0.365,-0.3644,-0.3645,-0.3649,-0.3645,-0.3649,-0.3646,-0.3656,-0.3655,-0.365,-0.3653,-0.3642,-0.3655,-0.365,-0.3649,-0.3649,-0.3619,-0.3612,-0.3591,-0.3629,-0.3629,-0.3628,0,-0.3635,-0.3634,-0.3622,-0.3624,-0.3623,-0.3618,-0.3616,-0.3613,-0.3614,-0.3617,-0.3616,-0.3623,-0.3616,-0.3628,-0.3618,-0.3626,-0.3624,-0.3626,-0.3625,-0.3625,-0.3638,-0.3617,-0.3585,-0.3581,-0.3624,-0.3624,-0.3625,0,-0.3614,-0.3609,-0.3601,-0.3601,-0.3604,-0.36,-0.3601,-0.3602,-0.3601,-0.3599,-0.3598,-0.3596,-0.3595,-0.3592,-0.3598,-0.3606,-0.3588,-0.36,-0.3589,-0.3589,-0.3585,-0.3585,-0.3551,-0.3584,-0.3584,-0.3584,-0.3584,0,-0.3591,-0.3583,-0.3591,-0.3586,-0.3577,-0.3584,-0.3575,-0.3577,-0.3578,-0.3573,-0.3582,-0.3577,-0.3586,-0.3581,-0.3586,-0.3577,-0.3576,-0.3578,-0.3579,-0.3577,-0.3577,-0.3576,-0.3577,-0.3583,-0.3583,-0.3584,-0.3584,0,-0.3566,-0.3571,-0.3562,-0.3566,-0.3566,-0.3559,-0.3562,-0.3557,-0.3561,-0.3554,-0.3553,-0.3558,-0.3554,-0.3559,-0.3555,-0.3558,-0.3546,-0.3549,-0.3545,-0.3546,-0.3535,-0.3536,-0.3499,-0.3495,-0.3531,-0.353,-0.353,0,-0.3551,-0.3545,-0.3547,-0.3544,-0.3545,-0.354,-0.3538,-0.3545,-0.3543,-0.3542,-0.3537,-0.3533,-0.353,-0.3522,-0.3526,-0.3522,-0.3526,-0.3513,-0.3525,-0.3523,-0.3525,-0.3525,-0.3524,-0.3511,-0.351,-0.351,-0.351,0,-0.3524,-0.3526,-0.3523,-0.352,-0.3517,-0.3516,-0.3515,-0.3512,-0.3519,-0.3515,-0.3511,-0.3508,-0.3504,-0.3499,-0.3497,-0.3497,-0.3504,-0.3505,-0.3503,-0.35,-0.3498,-0.3498,-0.3538,-0.3506,-0.3507,-0.3507,-0.3507,-0.3507,-0.3503,-0.3497,-0.3498,-0.3494,-0.3493,-0.3492,-0.3487,-0.3489,-0.3485,-0.3482,-0.3486,-0.348,-0.348,-0.3477,-0.3477,-0.3471,-0.3477,-0.3473,-0.3472,-0.3471,-0.3469,-0.3499,-0.3471,-0.3471,-0.3471,-0.3471,-0.3471,0,-0.3475,-0.3476,-0.3472,-0.347,-0.3466,-0.3473,-0.3472,-0.3468,-0.3462,-0.3462,-0.3458,-0.3452,-0.3448,-0.345,-0.3446,-0.3441,-0.3444,-0.344,-0.344,-0.344,-0.3465,-0.3467,-0.3437,-0.3437,-0.3437,-0.3437,-0.3438,-0.3438,-0.3461,-0.3452,-0.3454,-0.3445,-0.3445,-0.3439,-0.3437,-0.3436,-0.3435,-0.3428,-0.3424,-0.3425,-0.3426,-0.3421,-0.3417,-0.3418,-0.3416,-0.341,-0.3412,-0.3435,-0.3439,-0.3442,-0.3444,-0.341,-0.341,-0.3388,-0.3388,-0.3387]},{"header":{"parameterUnit":"m.s-1","parameterCategory":1,"la1":30.2991,"la2":30.254,"lo1":-89.0895,"lo2":-89.0444,"dy":0.0017,"dx":0.0017,"nx":28,"ny":28,"refTime":"2026-02-07T09:00:00:Z","depth":0,"parameterNumber":3,"parameterNumberName":"V-component_of_WINDS"},"data":[0,0,0,0,0,0,0,0,0,0,0,0,0,0,0,0,0,0,0,0,0,0,0,0,0,0,0,0,0,0,0,0,0,0,0,0,0,0,0,0,0,0,0,0,0,0,0,0,0,0,0,0,0,0,0,0,0,0,-3.697,-3.6971,0,-3.7084,-3.7086,-3.7087,-3.7095,-3.7094,-3.7093,-3.7092,-3.7206,-3.721,-3.7214,0,0,0,0,0,0,0,0,0,0,0,0,0,-3.6756,-3.676,-3.697,-3.6971,-3.6973,-3.7084,-3.7086,-3.7087,-3.7096,-3.7094,-3.7093,-3.7091,-3.7204,-3.7209,-3.7214,0,0,0,0,0,0,0,0,0,0,0,0,0,-3.6857,-3.6761,-3.6969,-3.699,-3.6993,-3.7084,-3.7086,-3.7088,-3.7096,-3.7094,-3.7092,-3.709,-3.7203,-3.7209,-3.7215,-3.7291,0,0,-3.7234,-3.7237,0,0,0,0,0,0,0,0,-3.6852,-3.6865,-3.6986,-3.6989,-3.6993,-3.7074,-3.7052,-3.7156,-3.7096,-3.7057,-3.7092,-3.7089,-3.7163,-3.7172,-3.7198,-3.7297,-3.7301,-3.7235,-3.7238,-3.7241,-3.7243,0,0,0,0,0,0,0,-3.6845,-3.686,-3.7015,-3.6988,-3.6992,-3.6993,-3.7006,-3.7072,-3.7119,-3.706,-3.7061,-3.7075,-3.7164,-3.7192,-3.7201,-3.7303,-3.7234,-3.724,-3.7244,-3.7246,-3.7472,-3.7474,0,0,0,0,0,0,-3.6834,-3.6855,-3.7011,-3.7018,-3.6916,-3.6999,-3.7012,-3.7049,-3.7118,-3.7127,-3.7076,-3.7075,-3.7182,-3.7193,-3.7205,-3.73,-3.7241,-3.7247,-3.7251,-3.747,-3.7472,-3.7475,0,0,0,0,0,0,-3.683,-3.6848,-3.7007,-3.6937,-3.6957,-3.7004,-3.7046,-3.7053,-3.708,-3.713,-3.7139,-3.7096,-3.7181,-3.7196,-3.727,-3.7304,-3.725,-3.7256,-3.7467,-3.747,-3.7473,-3.749,0,0,0,0,0,0,-3.6823,-3.6846,-3.6876,-3.6937,-3.6961,-3.7071,-3.7048,-3.7056,-3.7091,-3.709,-3.7151,-3.7159,-3.7181,-3.7261,-3.7277,-3.7312,-3.7261,-3.7464,-3.7469,-3.7472,-3.7487,-3.7493,-3.7499,0,0,0,0,0,-3.6816,-3.6875,-3.6878,-3.6897,-3.6999,-3.7073,-3.7086,-3.7111,-3.7094,-3.7124,-3.7157,-3.7157,-3.7298,-3.7268,-3.7286,-3.7324,-3.7462,-3.7467,-3.7472,-3.7484,-3.7492,-3.7499,0,0,0,0,0,0,-3.6815,-3.6884,-3.6887,-3.6968,-3.7015,-3.7074,-3.7113,-3.7119,-3.717,-3.7167,-3.7194,-3.7208,-3.7282,-3.731,-3.7276,-3.7402,-3.7378,-3.7387,-3.7381,-3.7389,-3.7395,-3.7387,-3.7266,0,0,0,0,0,-3.6825,-3.688,-3.6936,-3.7002,-3.7026,-3.7066,-3.7098,-3.7114,-3.7162,-3.7182,-3.722,-3.7266,-3.7321,-3.7357,-3.741,-3.7491,-3.7504,-3.7525,-3.7531,-3.7536,-3.7544,-3.759,-3.76,-3.7491,-3.7491,-3.7491,0,0,-3.6845,-3.6889,-3.6922,-3.7003,-3.7041,-3.7097,-3.7082,-3.7141,-3.7183,-3.719,-3.7264,-3.7293,-3.7347,-3.7426,-3.7462,-3.7451,-3.7577,-3.7543,-3.7546,-3.7551,-3.7596,-3.7606,-3.7616,-3.7494,-3.7494,-3.7493,0,0,-3.691,-3.6948,-3.7009,-3.7048,-3.7106,-3.7132,-3.7147,-3.7206,-3.7226,-3.73,-3.7308,-3.7357,-3.745,-3.7489,-3.7521,-3.7602,-3.7605,-3.7619,-3.7652,-3.7696,-3.7705,-3.7713,-3.7743,-3.7753,-3.7626,-3.7626,-3.7626,0,-3.6927,-3.7012,-3.7039,-3.7099,-3.7135,-3.7146,-3.7207,-3.7243,-3.7315,-3.7339,-3.7327,-3.7446,-3.7482,-3.7571,-3.7591,-3.7616,-3.7633,-3.7612,-3.7702,-3.771,-3.7718,-3.7746,-3.7758,-3.7627,-3.7627,-3.7627,-3.7627,0,-3.7031,-3.709,-3.7131,-3.7203,-3.7243,-3.7303,-3.7339,-3.7376,-3.7388,-3.7416,-3.7492,-3.7537,-3.76,-3.7622,-3.7633,-3.7712,-3.7704,-3.7696,-3.7673,-3.7729,-3.7757,-3.7768,-3.7629,-3.7629,-3.7628,-3.7628,0,0,-3.7098,-3.7185,-3.7199,-3.7233,-3.7298,-3.7344,-3.7405,-3.7468,-3.75,-3.755,-3.7602,-3.7681,-3.7675,-3.7711,-3.7727,-3.7766,-3.7829,-3.7754,-3.7756,-3.7767,-3.7921,-3.7926,-3.7939,-3.7831,-3.7834,-3.7835,-3.7916,0,-3.7171,-3.7281,-3.7307,-3.7401,-3.7456,-3.7468,-3.7521,-3.7567,-3.7595,-3.7645,-3.7675,-3.7732,-3.7719,-3.7741,-3.778,-3.7813,-3.7861,-3.7808,-3.788,-3.7882,-3.7867,-3.7953,-3.7959,-3.8033,-3.7927,-3.7929,-3.793,0,-3.7271,-3.7325,-3.7424,-3.7485,-3.7509,-3.7556,-3.7617,-3.7665,-3.7717,-3.7735,-3.7776,-3.7788,-3.7852,-3.7825,-3.7914,-3.7877,-3.7908,-3.7929,-3.7932,-3.794,-3.791,-3.7964,-3.8058,-3.8069,-3.7947,-3.7946,-3.7945,0,-3.7311,-3.7408,-3.7481,-3.7509,-3.758,-3.7613,-3.7645,-3.7695,-3.7732,-3.7785,-3.7809,-3.7868,-3.79,-3.7945,-3.7973,-3.7951,-3.806,-3.8035,-3.8076,-3.8075,-3.8098,-3.8096,-3.8199,-3.8117,-3.8117,-3.8117,-3.8116,0,-3.739,-3.7451,-3.75,-3.7545,-3.7614,-3.7643,-3.771,-3.7741,-3.7786,-3.7837,-3.785,-3.7898,-3.7931,-3.7983,-3.8005,-3.8076,-3.809,-3.8106,-3.8111,-3.8105,-3.8103,-3.8126,-3.8122,-3.812,-3.8119,-3.8118,-3.8118,0,-3.7446,-3.7482,-3.7562,-3.7624,-3.7641,-3.7689,-3.7742,-3.7786,-3.7814,-3.7878,-3.7895,-3.7939,-3.8001,-3.8034,-3.811,-3.8125,-3.8205,-3.8206,-3.8188,-3.819,-3.8229,-3.8225,-3.835,-3.8368,-3.8274,-3.8275,-3.8275,0,-3.7494,-3.7542,-3.761,-3.7646,-3.7678,-3.7735,-3.7773,-3.7804,-3.7843,-3.7908,-3.7944,-3.8007,-3.8059,-3.8157,-3.8196,-3.8255,-3.8259,-3.8299,-3.8268,-3.8261,-3.8261,-3.8258,-3.8263,-3.8304,-3.8305,-3.8306,-3.8306,0,-3.7577,-3.7593,-3.7648,-3.771,-3.7756,-3.7806,-3.7855,-3.7883,-3.7922,-3.7965,-3.803,-3.807,-3.815,-3.8213,-3.8275,-3.8306,-3.8313,-3.8316,-3.8329,-3.8323,-3.8311,-3.8319,-3.8203,-3.8313,-3.8312,-3.8312,-3.8311,-3.8311,-3.7631,-3.7675,-3.773,-3.7791,-3.7832,-3.7878,-3.7923,-3.7958,-3.8013,-3.8081,-3.8096,-3.8164,-3.8216,-3.8301,-3.8334,-3.8388,-3.838,-3.8398,-3.8403,-3.8407,-3.8409,-3.8302,-3.8399,-3.8399,-3.8399,-3.8399,-3.8399,0,-3.7715,-3.7751,-3.7808,-3.7878,-3.7926,-3.793,-3.7985,-3.8025,-3.8085,-3.8134,-3.8186,-3.826,-3.8322,-3.8366,-3.8428,-3.8463,-3.8467,-3.8478,-3.8476,-3.8483,-3.8412,-3.8396,-3.8473,-3.8473,-3.8473,-3.8473,-3.8473,-3.8473,-3.7764,-3.7838,-3.7861,-3.7955,-3.7991,-3.806,-3.8091,-3.8134,-3.8173,-3.8256,-3.8308,-3.8337,-3.8384,-3.845,-3.8507,-3.8518,-3.854,-3.8551,-3.8563,-3.8496,-3.8488,-3.848,-3.8465,-3.8556,-3.8556,-3.8629,-3.863,-3.863]}]]